Home   Weather   Haan   Past weeks

Flag for Germany Past Weather in Haan, North Rhine-Westphalia, Germany — Yesterday and Last 2 Weeks

Now
43 °F

Broken clouds.


Feels Like: 37 °F
Forecast: 32 / 50 °F
Wind: 10 mph from Southwest

Location: Duesseldorf

Current Time: Apr 25, 2017 at 6:54:43 am

Latest Report: Apr 25, 2017 at 6:20 am


Visibility: N/A

Pressure: 29.71 "Hg

Humidity: 87%

Dew Point: 39 °F

Location of HaanLocation

Past Weather in Haan — Graph

°F

Haan Temperature Yesterday

Maximum temperature yesterday: 59 °F (at 2:20 pm)
Minimum temperature yesterday: 36 °F (at 12:50 am)
Average temperature yesterday: 48 °F

High & Low Weather Summary for the Past Weeks

 TemperatureHumidityPressure
High59 °F (Apr 10, 3:20 pm)100% (Apr 14, 5:50 am)30.63 "Hg (Apr 14, 5:50 am)
Low27 °F (Apr 20, 4:50 am)30% (Apr 20, 5:20 pm)29.71 "Hg (Apr 25, 12:50 am)
Average46 °F69%30.19 "Hg
* Reported Apr 10 5:20 am — Apr 25 5:50 am, Haan, Weather by CustomWeather, © 2017

Note: Actual official high and low records may vary slightly from our data, if they occured in-between our weather recording intervals... More about our weather records

Advertising

Haan Weather History for the Previous 24 Hours

Scroll right to see more
 ConditionsComfort  
Time TempWeatherWind HumidityBarometerVisibility
5:50 am
Tue, Apr 25
43 °FLight rain. Passing clouds.9 mph87%29.71 "HgN/A
4:50 am43 °FLight rain. Mostly cloudy.6 mph87%29.71 "HgN/A
4:20 am43 °FLight rain. Partly cloudy.7 mph87%29.71 "HgN/A
3:50 am43 °FLight rain. Mostly cloudy.9 mph87%29.71 "HgN/A
3:20 am45 °FLight rain. Mostly cloudy.15 mph81%29.71 "HgN/A
2:50 am48 °FPassing clouds.12 mph76%29.71 "HgN/A
2:20 am48 °FLight rain. Passing clouds.15 mph76%29.71 "HgN/A
1:50 am52 °FPassing clouds.9 mph67%29.71 "HgN/A
12:50 am52 °FPartly cloudy.7 mph67%29.71 "HgN/A
12:20 am52 °FMostly cloudy.9 mph67%29.74 "HgN/A
11:50 pm
Mon, Apr 24
52 °FLight rain. Passing clouds.10 mph67%29.74 "HgN/A
11:20 pm54 °FPassing clouds.10 mph63%29.74 "HgN/A
10:50 pm54 °FClear.10 mph58%29.77 "Hg10 mi
9:50 pm54 °FClear.6 mph54%29.80 "Hg10 mi
9:20 pm55 °FClear.7 mph51%29.80 "Hg10 mi
8:50 pm55 °FClear.8 mph51%29.80 "Hg10 mi
8:20 pm55 °FSunny.8 mph47%29.80 "Hg10 mi
7:50 pm57 °FSunny.9 mph44%29.80 "Hg10 mi
7:20 pm57 °FSunny.10 mph48%29.83 "Hg10 mi
6:50 pm57 °FSunny.8 mph48%29.83 "Hg10 mi
6:20 pm57 °FSunny.9 mph44%29.83 "Hg10 mi
5:50 pm59 °FPassing clouds.9 mph45%29.86 "HgN/A
5:20 pm57 °FSunny.15 mph44%29.86 "Hg10 mi
4:50 pm59 °FSunny.14 mph42%29.89 "Hg10 mi
4:20 pm59 °FPassing clouds.15 mph42%29.89 "HgN/A
3:50 pm59 °FSunny.16 mph42%29.89 "Hg10 mi
3:20 pm59 °FPassing clouds.16 mph42%29.92 "HgN/A
2:50 pm57 °FPassing clouds.14 mph44%29.92 "HgN/A
2:20 pm59 °FSunny.15 mph45%29.95 "Hg10 mi
1:50 pm57 °FBroken clouds.15 mph44%29.95 "HgN/A
1:20 pm57 °FScattered clouds.16 mph48%29.98 "HgN/A
12:50 pm55 °FScattered clouds.16 mph47%29.98 "HgN/A
12:20 pm54 °FPartly sunny.14 mph51%30.01 "HgN/A
11:50 am54 °FPartly sunny.13 mph47%30.01 "HgN/A
11:20 am54 °FSunny.15 mph47%30.04 "Hg10 mi
10:50 am52 °FSunny.14 mph50%30.04 "Hg10 mi
10:20 am50 °FPassing clouds.13 mph54%30.04 "HgN/A
9:20 am46 °FSunny.12 mph62%30.07 "Hg10 mi
8:50 am45 °FPassing clouds.9 mph66%30.07 "HgN/A
8:20 am41 °FPassing clouds.8 mph76%30.07 "HgN/A
7:50 am39 °FSunny.9 mph81%30.09 "Hg10 mi
7:20 am37 °FSunny.12 mph87%30.09 "Hg10 mi
6:50 am37 °FSunny.12 mph87%30.09 "Hg10 mi
6:20 am36 °FSunny.10 mph87%30.09 "Hg10 mi
Weather by CustomWeather, © 2017

See weather overviewHow to use our weather pages